When you browse on this site, cookies collect data to enhance your experience and personalize the content and advertising you see.
Visit our Privacy Policy to learn more. By continuing to use the site, you agree to this use of cookies and data.
  • Em Portugal
  • Lista de países
  • Para 7 dias
  • Temperatura da água
  • Mapa do tempo
  • Widgets de tempo
  • user-avatar
    Iniciar Sessão

    Previsão horária em Sopron

    Hoje, 17 Setembro, Terça-feira

    Tempo Temperatura Precipitação Vento Pressão Humidade
    00:00 +20°C° 0.1 mm 2 m/s 745 mmHg 69%
    01:00 +21°C° 0 mm 1 m/s 745 mmHg 71%
    02:00 +20°C° 0 mm 2 m/s 745 mmHg 71%
    03:00 +20°C° 0 mm 2 m/s 744 mmHg 71%
    04:00 +19°C° 0 mm 2 m/s 744 mmHg 71%
    05:00 +20°C° 0 mm 2 m/s 744 mmHg 71%
    06:00 +20°C° 0 mm 2 m/s 745 mmHg 71%
    07:00 +21°C° 0 mm 1 m/s 745 mmHg 71%
    08:00 +21°C° 0 mm 2 m/s 745 mmHg 66%
    09:00 +22°C° 0 mm 3 m/s 745 mmHg 61%
    10:00 +23°C° 0 mm 4 m/s 745 mmHg 56%
    11:00 +25°C° 0.1 mm 4 m/s 745 mmHg 54%
    12:00 +25°C° 0.1 mm 4 m/s 744 mmHg 51%
    13:00 +26°C° 0.1 mm 5 m/s 744 mmHg 49%
    14:00 +26°C° 0.1 mm 5 m/s 744 mmHg 50%
    15:00 +25°C° 0.1 mm 5 m/s 743 mmHg 51%
    16:00 +25°C° 0.1 mm 5 m/s 743 mmHg 52%
    17:00 +23°C° 0 mm 5 m/s 743 mmHg 57%
    18:00 +21°C° 0 mm 5 m/s 743 mmHg 62%
    19:00 +20°C° 0 mm 5 m/s 743 mmHg 67%
    20:00 +20°C° 0 mm 6 m/s 744 mmHg 66%
    21:00 +19°C° 0 mm 6 m/s 744 mmHg 65%
    22:00 +19°C° 0 mm 6 m/s 745 mmHg 64%
    23:00 +16°C° 0 mm 7 m/s 745 mmHg 63%

    Amanhã, 18 Setembro, Quarta-feira

    Tempo Temperatura Precipitação Vento Pressão Humidade
    00:00 +15°C° 0 mm 7 m/s 746 mmHg 62%
    01:00 +14°C° 0 mm 7 m/s 746 mmHg 61%
    02:00 +12°C° 0 mm 7 m/s 746 mmHg 60%
    03:00 +12°C° 0 mm 7 m/s 747 mmHg 60%
    04:00 +11°C° 0 mm 7 m/s 747 mmHg 59%
    05:00 +11°C° 0 mm 8 m/s 748 mmHg 57%
    06:00 +10°C° 0 mm 8 m/s 749 mmHg 55%
    07:00 +10°C° 0 mm 8 m/s 749 mmHg 54%
    08:00 +11°C° 0 mm 8 m/s 750 mmHg 49%
    09:00 +14°C° 0 mm 7 m/s 750 mmHg 45%
    10:00 +15°C° 0 mm 7 m/s 751 mmHg 40%
    11:00 +16°C° 0 mm 6 m/s 751 mmHg 37%
    12:00 +17°C° 0 mm 5 m/s 750 mmHg 35%
    13:00 +19°C° 0 mm 5 m/s 750 mmHg 32%
    14:00 +19°C° 0 mm 4 m/s 750 mmHg 32%
    15:00 +19°C° 0 mm 4 m/s 750 mmHg 33%
    16:00 +19°C° 0 mm 3 m/s 750 mmHg 33%
    17:00 +17°C° 0 mm 2 m/s 750 mmHg 39%
    18:00 +15°C° 0 mm 2 m/s 750 mmHg 44%
    19:00 +13°C° 0 mm 1 m/s 750 mmHg 50%
    20:00 +12°C° 0 mm 1 m/s 750 mmHg 51%
    21:00 +12°C° 0 mm 1 m/s 751 mmHg 52%
    22:00 +11°C° 0 mm 1 m/s 751 mmHg 54%
    23:00 +11°C° 0 mm 1 m/s 751 mmHg 56%

    Depois de amanhã, 19 Setembro, Quinta-feira

    Tempo Temperatura Precipitação Vento Pressão Humidade
    00:00 +11°C° 0 mm 1 m/s 751 mmHg 59%
    01:00 +9°C° 0 mm 2 m/s 751 mmHg 62%
    02:00 +9°C° 0 mm 2 m/s 751 mmHg 65%
    03:00 +8°C° 0 mm 2 m/s 751 mmHg 69%
    04:00 +8°C° 0 mm 2 m/s 751 mmHg 72%
    05:00 +9°C° 0 mm 2 m/s 751 mmHg 69%
    06:00 +9°C° 0 mm 2 m/s 752 mmHg 67%
    07:00 +10°C° 0 mm 2 m/s 752 mmHg 64%
    08:00 +11°C° 0 mm 3 m/s 752 mmHg 59%
    09:00 +13°C° 0 mm 3 m/s 752 mmHg 54%
    10:00 +14°C° 0 mm 4 m/s 753 mmHg 49%
    11:00 +15°C° 0 mm 4 m/s 752 mmHg 46%
    12:00 +15°C° 0 mm 4 m/s 752 mmHg 44%
    13:00 +16°C° 0 mm 5 m/s 752 mmHg 41%
    14:00 +16°C° 0 mm 5 m/s 752 mmHg 40%
    15:00 +16°C° 0 mm 5 m/s 752 mmHg 40%
    16:00 +16°C° 0 mm 5 m/s 752 mmHg 39%
    17:00 +14°C° 0 mm 4 m/s 752 mmHg 44%
    18:00 +12°C° 0 mm 3 m/s 753 mmHg 49%
    19:00 +11°C° 0 mm 3 m/s 753 mmHg 54%
    20:00 +10°C° 0 mm 3 m/s 753 mmHg 57%
    21:00 +9°C° 0 mm 2 m/s 754 mmHg 60%
    22:00 +9°C° 0 mm 2 m/s 754 mmHg 63%
    23:00 +8°C° 0 mm 2 m/s 754 mmHg 65%

    20 Setembro, Sexta-feira

    Tempo Temperatura Precipitação Vento Pressão Humidade
    00:00 +8°C° 0 mm 2 m/s 754 mmHg 67%
    01:00 +8°C° 0 mm 2 m/s 754 mmHg 69%
    02:00 +8°C° 0 mm 2 m/s 754 mmHg 71%
    03:00 +7°C° 0 mm 2 m/s 754 mmHg 72%
    04:00 +7°C° 0 mm 2 m/s 754 mmHg 73%
    05:00 +8°C° 0 mm 2 m/s 754 mmHg 71%
    06:00 +8°C° 0 mm 2 m/s 754 mmHg 68%
    07:00 +9°C° 0 mm 2 m/s 754 mmHg 66%
    08:00 +11°C° 0 mm 3 m/s 754 mmHg 60%
    09:00 +12°C° 0 mm 3 m/s 754 mmHg 54%
    10:00 +14°C° 0 mm 3 m/s 754 mmHg 48%
    11:00 +16°C° 0 mm 2 m/s 754 mmHg 44%
    12:00 +17°C° 0 mm 2 m/s 753 mmHg 40%
    13:00 +18°C° 0 mm 2 m/s 753 mmHg 36%
    14:00 +18°C° 0 mm 2 m/s 752 mmHg 36%
    15:00 +18°C° 0 mm 2 m/s 752 mmHg 35%
    16:00 +18°C° 0 mm 2 m/s 752 mmHg 35%
    17:00 +16°C° 0 mm 1 m/s 752 mmHg 40%
    18:00 +14°C° 0 mm 1 m/s 752 mmHg 45%
    19:00 +12°C° 0 mm 1 m/s 753 mmHg 50%
    20:00 +12°C° 0 mm 1 m/s 753 mmHg 52%
    21:00 +11°C° 0 mm 1 m/s 753 mmHg 54%
    22:00 +11°C° 0 mm 1 m/s 753 mmHg 55%
    23:00 +11°C° 0 mm 1 m/s 753 mmHg 57%

    21 Setembro, Sábado

    Tempo Temperatura Precipitação Vento Pressão Humidade
    00:00 +10°C° 0 mm 1 m/s 753 mmHg 58%
    01:00 +10°C° 0 mm 1 m/s 753 mmHg 60%
    02:00 +10°C° 0 mm 1 m/s 753 mmHg 61%
    03:00 +8°C° 0 mm 0 m/s 753 mmHg 63%
    04:00 +8°C° 0 mm 0 m/s 753 mmHg 65%
    05:00 +9°C° 0 mm 0 m/s 753 mmHg 63%
    06:00 +9°C° 0 mm 0 m/s 753 mmHg 62%
    07:00 +10°C° 0 mm 0 m/s 753 mmHg 60%
    08:00 +13°C° 0 mm 1 m/s 753 mmHg 54%
    09:00 +15°C° 0 mm 2 m/s 753 mmHg 49%
    10:00 +17°C° 0 mm 2 m/s 753 mmHg 43%
    11:00 +18°C° 0 mm 3 m/s 753 mmHg 40%
    12:00 +19°C° 0 mm 3 m/s 753 mmHg 37%
    13:00 +20°C° 0 mm 3 m/s 752 mmHg 34%
    14:00 +20°C° 0 mm 3 m/s 752 mmHg 34%
    15:00 +21°C° 0 mm 3 m/s 751 mmHg 34%
    16:00 +21°C° 0 mm 3 m/s 751 mmHg 34%
    17:00 +19°C° 0 mm 3 m/s 751 mmHg 40%
    18:00 +16°C° 0 mm 3 m/s 751 mmHg 47%
    19:00 +14°C° 0 mm 2 m/s 751 mmHg 53%
    20:00 +13°C° 0 mm 3 m/s 752 mmHg 54%
    21:00 +12°C° 0 mm 3 m/s 752 mmHg 56%
    22:00 +12°C° 0 mm 3 m/s 752 mmHg 58%
    23:00 +11°C° 0 mm 3 m/s 752 mmHg 59%

    22 Setembro, Domingo

    Tempo Temperatura Precipitação Vento Pressão Humidade
    00:00 +11°C° 0 mm 3 m/s 752 mmHg 60%
    01:00 +11°C° 0 mm 3 m/s 752 mmHg 62%
    02:00 +10°C° 0 mm 3 m/s 752 mmHg 63%
    03:00 +10°C° 0 mm 3 m/s 752 mmHg 64%
    04:00 +10°C° 0 mm 3 m/s 752 mmHg 65%
    05:00 +10°C° 0 mm 3 m/s 752 mmHg 63%
    06:00 +11°C° 0 mm 4 m/s 752 mmHg 61%
    07:00 +11°C° 0 mm 4 m/s 752 mmHg 60%
    08:00 +14°C° 0 mm 5 m/s 752 mmHg 53%
    09:00 +16°C° 0 mm 5 m/s 752 mmHg 46%
    10:00 +19°C° 0 mm 6 m/s 752 mmHg 38%
    11:00 +20°C° 0 mm 6 m/s 752 mmHg 36%
    12:00 +21°C° 0 mm 6 m/s 751 mmHg 34%
    13:00 +22°C° 0 mm 7 m/s 751 mmHg 32%
    14:00 +22°C° 0 mm 6 m/s 751 mmHg 33%
    15:00 +22°C° 0 mm 6 m/s 751 mmHg 33%
    16:00 +22°C° 0 mm 6 m/s 750 mmHg 34%
    17:00 +20°C° 0 mm 5 m/s 750 mmHg 40%
    18:00 +18°C° 0 mm 4 m/s 750 mmHg 45%
    19:00 +15°C° 0 mm 4 m/s 751 mmHg 51%
    20:00 +16°C° 0 mm 3 m/s 751 mmHg 53%
    21:00 +14°C° 0 mm 3 m/s 751 mmHg 55%
    22:00 +14°C° 0 mm 3 m/s 751 mmHg 58%
    23:00 +13°C° 0 mm 3 m/s 751 mmHg 60%
    Mostrar mais